Location: Cactus School
(34.5700°N, 118.0931°W)
Time: 09:29:00
(UTC-07:00)

S-56A Canister/Altair - Pass Details

Date: 15 April 2024
Orbit: 638 x 2488 km, 38.9° (Epoch: 29 May)

Event Time Altitude Azimuth Distance (km) Brightness Sun altitude
Rises 01:08:41 0° 291° (WNW) 4,980 11.8 -45.3°
Reaches altitude 10° 01:11:42 10° 286° (WNW) 4,209 11.3 -45.2°
Enters shadow 01:14:47 22° 280° (W) 3,507 10.8 -45.1°
Maximum altitude 01:23:13 55° 214° (SW) 2,638 - -44.8°
Drops below altitude 10° 01:37:33 10° 142° (SE) 5,140 - -44.2°
Sets 01:41:41 0° 138° (SE) 6,121 - -43.9°
